GSAT-19 (42747 NORAD) Tracking and Keplerian Element Data

This shows tracking and keplerian element data for the satellite.

Feedback or suggestion? Click here.




ElementValue
Catalog42747
NameGSAT-19
Epoch Orbit2571
Epoch Day159.18591088
Epoch Year2024
RAAN93.4059
Inclination0.104
Eccentricity0.0006474
Argument of Perigee342.5044
Mean Anonmoly294.9671
Mean Motion1.00270839
Decay Rate1.26E-06
L11 42747U 17031A 24159.18591088 .00000126 00000+0 00000+0 0 9994
L22 42747 0.1040 93.4059 0006474 342.5044 294.9671 1.00270839 25717



Live tracking and technical data element details for GSAT-19 (NORAD 42747). GSAT-19 can be tracked NOW for your location showing map with azimuth and elevation plus other details from your city location.







IsCatalogInMostPopularTable: catalog: 42747, numindb: 621
Update: records affected: 1



GetName: 42747 GSAT-19

Hit Count: updated at: Mon, 17 Jun 2024 22:45:59 GMT